Lexington, NE

10:44 AM CST on December 03, 2016 (GMT -0600)
Kelly

Weather History for KLXN - June, 2013

Change the Weather History Date:

Saturday, June 29, 2013

  Actual Average Record
Temperature  
Mean Temperature 70 °F -  
Max Temperature 83 °F 83 °F 96 °F (2002)
Min Temperature 56 °F 58 °F 46 °F (2000)
Cooling Degree Days 4    
Growing Degree Days 20 (Base 50)    
Moisture  
Dew Point 54 °F    
Average Humidity 61    
Maximum Humidity 94    
Minimum Humidity 28    
Precipitation  
Precipitation 0.00 in - - ()
Sea Level Pressure  
Sea Level Pressure 30.08 in    
Wind  
Wind Speed 8 mph (NNW)    
Max Wind Speed 20 mph    
Max Gust Speed 30 mph    
Visibility 10 miles    
Events      
Averages and records for this station are not official NWS values.
T = Trace of Precipitation, MM = Missing Value Source: NWS Daily Summary

Daily Weather History Graph

Daily Weather History Graph

Search for Another Location

Airport or City:

Trip Planner

Search our weather history database for the weather conditions in past years. The results will help you decide how hot, cold, wet, or windy it might be!

Date:

Astronomy

Jun. 29, 2013 Rise Set
Actual Time 6:10 AM CDT 9:14 PM CDT
Civil Twilight 5:37 AM CDT 9:47 PM CDT
Nautical Twilight 4:54 AM CDT 10:30 PM CDT
Astronomical Twilight 4:04 AM CDT 11:20 PM CDT
Moon 12:41 AM CDT (6/29) 1:26 PM CDT (6/29)
Length of Visible Light 16h 10m
Length of Day
15h 03m
Waning Gibbous, 55% of the Moon is Illuminated
Jun 29
Waning Gibbous
Jun 29
Last Quarter
Jul 8
New
Jul 15
First Quarter
Jul 22
Full

Hourly Weather History & Observations

Time (CDT) Temp. Heat Index Dew Point Humidity Pressure Visibility Wind Dir Wind Speed Gust Speed Precip Events Conditions
12:15 AM 63.0 °F - 58.1 °F 84% 30.09 in 10.0 mi North 4.6 mph - N/A   Clear
12:35 AM 62.8 °F - 57.9 °F 84% 30.10 in 10.0 mi North 5.8 mph - N/A   Clear
12:55 AM 62.2 °F - 57.2 °F 84% 30.11 in 10.0 mi North 6.9 mph - N/A   Clear
1:15 AM 61.7 °F - 57.6 °F 86% 30.11 in 10.0 mi NNW 6.9 mph - N/A   Clear
1:35 AM 61.9 °F - 57.2 °F 85% 30.11 in 10.0 mi NW 6.9 mph - N/A   Clear
1:55 AM 60.4 °F - 56.7 °F 87% 30.11 in 10.0 mi NW 6.9 mph - N/A   Clear
2:15 AM 60.4 °F - 57.0 °F 88% 30.11 in 10.0 mi WNW 5.8 mph - N/A   Clear
2:35 AM 59.9 °F - 56.8 °F 90% 30.10 in 10.0 mi NW 5.8 mph - N/A   Clear
2:55 AM 59.5 °F - 56.3 °F 89% 30.10 in 10.0 mi NNW 6.9 mph - N/A   Clear
3:15 AM 59.4 °F - 56.3 °F 90% 30.10 in 10.0 mi NNW 5.8 mph - N/A   Clear
3:35 AM 59.0 °F - 56.3 °F 91% 30.10 in 10.0 mi West 4.6 mph - N/A   Clear
3:55 AM 59.0 °F - 55.9 °F 90% 30.10 in 10.0 mi WNW 4.6 mph - N/A   Clear
4:15 AM 58.3 °F - 55.6 °F 91% 30.10 in 10.0 mi WNW 6.9 mph - N/A   Clear
4:35 AM 58.1 °F - 55.6 °F 91% 30.09 in 10.0 mi West 5.8 mph - N/A   Clear
4:55 AM 57.7 °F - 55.4 °F 92% 30.09 in 10.0 mi WNW 4.6 mph - N/A   Clear
5:15 AM 57.4 °F - 55.4 °F 93% 30.09 in 10.0 mi WNW 3.5 mph - N/A   Clear
5:35 AM 56.7 °F - 54.7 °F 93% 30.09 in 10.0 mi West 5.8 mph - N/A   Clear
5:55 AM 57.2 °F - 55.4 °F 94% 30.09 in 10.0 mi WNW 6.9 mph - N/A   Clear
6:15 AM 57.2 °F - 55.4 °F 94% 30.09 in 10.0 mi WNW 5.8 mph - N/A   Clear
6:35 AM 57.4 °F - 55.4 °F 93% 30.10 in 10.0 mi WNW 5.8 mph - N/A   Clear
6:55 AM 59.0 °F - 56.3 °F 91% 30.10 in 10.0 mi West 5.8 mph - N/A   Clear
7:15 AM 60.4 °F - 57.4 °F 90% 30.11 in 10.0 mi West 3.5 mph - N/A   Clear
7:35 AM 62.4 °F - 57.9 °F 85% 30.11 in 10.0 mi West 5.8 mph - N/A   Clear
7:55 AM 64.4 °F - 58.6 °F 82% 30.11 in 10.0 mi NW 5.8 mph - N/A   Clear
8:15 AM 66.4 °F - 58.3 °F 75% 30.11 in 10.0 mi NW 6.9 mph - N/A   Clear
8:35 AM 68.5 °F - 58.5 °F 70% 30.11 in 10.0 mi NNW 8.1 mph - N/A   Clear
8:55 AM 71.1 °F - 59.4 °F 66% 30.11 in 10.0 mi NNW 8.1 mph - N/A   Clear
9:15 AM 72.5 °F - 59.0 °F 62% 30.11 in 10.0 mi NW 8.1 mph - N/A   Clear
9:35 AM 74.8 °F - 58.6 °F 57% 30.11 in 10.0 mi NNW 8.1 mph - N/A   Clear
9:55 AM 76.5 °F - 55.8 °F 49% 30.11 in 10.0 mi North 10.4 mph - N/A   Clear
10:15 AM 77.9 °F - 56.8 °F 48% 30.11 in 10.0 mi North 12.7 mph - N/A   Clear
10:35 AM 77.9 °F - 57.4 °F 49% 30.11 in 10.0 mi NNE 11.5 mph - N/A   Clear
10:55 AM 79.3 °F - 56.5 °F 45% 30.10 in 10.0 mi North 12.7 mph - N/A   Clear
11:15 AM 79.9 °F - 55.8 °F 43% 30.10 in 10.0 mi North 9.2 mph 19.6 mph N/A   Clear
11:35 AM 80.8 °F 80.8 °F 56.1 °F 43% 30.10 in 10.0 mi North 16.1 mph 19.6 mph N/A   Clear
11:55 AM 81.1 °F 81.0 °F 55.8 °F 42% 30.10 in 10.0 mi NNW 16.1 mph 21.9 mph N/A   Clear
12:15 PM 81.7 °F 81.4 °F 56.3 °F 42% 30.10 in 10.0 mi North 17.3 mph 21.9 mph N/A   Clear
12:35 PM 82.0 °F 81.7 °F 57.0 °F 42% 30.09 in 10.0 mi North 18.4 mph 24.2 mph N/A   Clear
12:55 PM 82.4 °F 81.7 °F 55.4 °F 39% 30.09 in 10.0 mi North 13.8 mph 25.3 mph N/A   Clear
1:15 PM 81.7 °F 81.2 °F 55.2 °F 40% 30.09 in 10.0 mi North 15.0 mph 24.2 mph N/A   Scattered Clouds
1:35 PM 82.0 °F 81.4 °F 54.5 °F 39% 30.08 in 10.0 mi North 19.6 mph 24.2 mph N/A   Scattered Clouds
1:55 PM 81.9 °F 81.1 °F 53.6 °F 38% 30.08 in 10.0 mi North 18.4 mph 29.9 mph N/A   Scattered Clouds
2:15 PM 82.4 °F 81.4 °F 53.8 °F 37% 30.07 in 10.0 mi North 15.0 mph 23.0 mph N/A   Scattered Clouds
2:35 PM 83.1 °F - 52.5 °F 35% 30.07 in 10.0 mi North 18.4 mph 24.2 mph N/A   Clear
2:55 PM 83.3 °F - 51.8 °F 34% 30.07 in 10.0 mi North 19.6 mph 24.2 mph N/A   Clear
3:15 PM 83.5 °F - 50.9 °F 32% 30.07 in 10.0 mi North 16.1 mph 24.2 mph N/A   Scattered Clouds
3:35 PM 83.5 °F - 48.2 °F 29% 30.07 in 10.0 mi North 18.4 mph 24.2 mph N/A   Scattered Clouds
3:55 PM 83.5 °F - 47.8 °F 29% 30.07 in 10.0 mi North 17.3 mph 24.2 mph N/A   Scattered Clouds
4:15 PM 83.5 °F - 47.7 °F 29% 30.06 in 10.0 mi NNE 13.8 mph 20.7 mph N/A   Scattered Clouds
4:35 PM 83.3 °F - 47.5 °F 29% 30.06 in 10.0 mi North 12.7 mph 24.2 mph N/A   Clear
4:55 PM 83.3 °F - 46.8 °F 28% 30.06 in 10.0 mi North 18.4 mph 23.0 mph N/A   Clear
5:15 PM 83.3 °F - 47.1 °F 28% 30.05 in 10.0 mi North 15.0 mph - N/A   Clear
5:35 PM 83.1 °F - 47.1 °F 28% 30.05 in 10.0 mi NNE 13.8 mph - N/A   Clear
5:55 PM 82.4 °F - 46.4 °F 28% 30.05 in 10.0 mi NNE 11.5 mph 18.4 mph N/A   Clear
6:15 PM 82.0 °F - 47.5 °F 30% 30.04 in 10.0 mi NNE 12.7 mph - N/A   Clear
6:35 PM 81.5 °F - 47.7 °F 31% 30.04 in 10.0 mi NNE 13.8 mph - N/A   Clear
6:55 PM 81.0 °F - 47.3 °F 31% 30.03 in 10.0 mi North 9.2 mph - N/A   Clear
7:15 PM 80.6 °F - 48.2 °F 32% 30.04 in 10.0 mi North 13.8 mph - N/A   Clear
7:35 PM 79.3 °F - 47.8 °F 33% 30.04 in 10.0 mi NNE 12.7 mph - N/A   Clear
7:55 PM 78.4 °F - 47.7 °F 34% 30.04 in 10.0 mi North 12.7 mph - N/A   Clear
8:15 PM 77.0 °F - 49.3 °F 38% 30.04 in 10.0 mi NNE 8.1 mph - N/A   Clear
8:35 PM 74.1 °F - 52.7 °F 47% 30.04 in 10.0 mi North 6.9 mph - N/A   Clear
8:55 PM 70.9 °F - 53.2 °F 54% 30.04 in 10.0 mi North 5.8 mph - N/A   Clear
9:15 PM 68.7 °F - 54.9 °F 61% 30.05 in 10.0 mi North 3.5 mph - N/A   Clear
9:35 PM 66.9 °F - 54.9 °F 65% 30.05 in 10.0 mi North 4.6 mph - N/A   Clear
9:55 PM 64.6 °F - 54.5 °F 70% 30.06 in 10.0 mi North 6.9 mph - N/A   Clear
10:15 PM 64.4 °F - 54.9 °F 71% 30.06 in 10.0 mi NNE 5.8 mph - N/A   Clear
10:35 PM 62.6 °F - 54.3 °F 74% 30.07 in 10.0 mi NNE 5.8 mph - N/A   Clear
10:55 PM 61.7 °F - 55.4 °F 80% 30.08 in 10.0 mi NNE 5.8 mph - N/A   Clear
11:15 PM 60.3 °F - 54.7 °F 82% 30.08 in 10.0 mi North 5.8 mph - N/A   Clear
11:35 PM 59.5 °F - 55.0 °F 85% 30.09 in 10.0 mi NNE 3.5 mph - N/A   Clear
11:55 PM 60.1 °F - 55.0 °F 83% 30.10 in 10.0 mi North 3.5 mph - N/A   Clear